Vorticity
4 4 3 2 3 3 4 5 7 7 4 2 3 2 3 4 3 4 5 3 9 6 4 8 6 8 2 9 -3 4 4 6
4 3 4 4 4 6 7 6 6 3 3 4 3 5 3 4 4 2 2 4 2 2 10 12 8 4 6 8 5 5 5 6
4 4 3 3 3 5 4 5 5 3 3 4 4 4 3 3 1 3 3 4 2 3 5 8 7 9 2 5 9 14 1 6
8 5 3 2 2 2 6 9 5 4 4 2 -0 1 2 4 4 3 4 4 5 9 5 7 9 11 2 2 13 2 7 3
9 6 4 3 2 3 5 4 5 4 4 10 4 -1 3 2 3 6 2 6 5 7 2 1 1 6 11 -6 19 8 10 0
7 4 5 5 7 9 8 8 8 6 9 6 7 2 -1 2 2 1 4 2 2 11 2 2 -0 5 6 7 13 15 8 5
5 4 7 8 6 4 4 5 6 8 10 3 6 -2 -2 1 -1 5 -0 7 2 2 1 6 5 4 9 0 12 23 6 3
9 9 10 5 3 1 2 6 7 7 8 6 2 -1 2 0 -1 2 -0 1 6 3 2 8 4 4 8 7 6 22 14 8
9 7 2 0 1 2 3 1 0 1 4 5 5 3 3 4 4 3 3 7 7 6 6 5 3 9 -8 4 27 25 26 -6
4 5 3 2 3 2 1 4 6 4 4 6 5 6 5 6 6 5 5 4 7 0 9 3 10 -1 4 27 13 20 15 21
5 5 5 4 1 0 3 1 1 2 2 4 4 4 6 3 4 4 10 6 6 5 5 2 4 2 23 2 -12 2 6 8
2 2 2 2 1 1 2 4 5 6 8 8 4 4 4 4 7 6 5 7 8 10 10 1 12 14 33 -27 5 3 -6 9
7 7 8 8 8 7 8 8 10 10 7 8 8 8 5 3 7 6 10 6 7 8 4 8 1 5 10 10 11 1 6 -0
11 12 11 10 12 11 10 7 3 7 8 8 8 7 6 10 8 7 7 10 9 7 7 7 9 -0 4 5 2 8 3 -2
5 4 4 3 5 4 7 10 11 10 10 14 11 11 8 16 13 15 16 8 5 5 3 7 7 0 2 7 11 9 9 4
3 6 8 7 2 -0 2 0 1 5 11 14 17 16 9 10 8 18 2 -0 52 53 15 8 6 5 8 11 6 14 10 9
7 6 5 15 14 9 6 14 21 27 29 40 19 17 13 20 31 -68 9 4 27 51 -31 18 53 30 55 -19 29 21 -6 17
11 11 1 0 -1 3 11 5 4 4 8 9 10 14 16 9 21 22 19 19 -18 -26 -44 -4 6 20 32 -42 70 10 9 5
-1 -1 -5 -1 5 4 6 2 4 4 9 15 26 28 10 3 13 10 21 18 12 13 28 53 -18 -3 51 10 22 -31 16 11
-0 -8 -7 9 5 0 7 7 23 22 31 22 37 25 6 -6 11 12 -0 10 8 2 5 1 -2 12 39 -15 14 -10 35 6
Height
5855 5855 5854 5854 5852 5852 5851 5850 5849 5848 5847 5846 5846 5844 5843 5842 5842 5842 5840 5840 5839 5838 5838 5837 5836 5835 5835 5835 5834 5831 5831 5833
5850 5850 5851 5850 5849 5848 5847 5846 5846 5844 5843 5842 5842 5841 5839 5839 5839 5838 5836 5837 5836 5834 5833 5832 5831 5830 5830 5829 5827 5827 5827 5828
5846 5845 5845 5844 5844 5844 5842 5842 5841 5840 5838 5838 5836 5835 5835 5834 5834 5833 5830 5830 5830 5829 5827 5826 5826 5826 5825 5824 5821 5820 5823 5820
5841 5840 5840 5839 5838 5838 5838 5838 5837 5835 5834 5832 5831 5832 5832 5831 5829 5827 5824 5824 5824 5822 5821 5820 5820 5820 5818 5817 5815 5813 5816 5813
5836 5836 5835 5835 5834 5832 5832 5831 5831 5830 5829 5828 5828 5826 5824 5824 5821 5820 5817 5816 5817 5816 5814 5814 5811 5811 5810 5809 5808 5807 5807 5805
5829 5829 5829 5828 5828 5828 5826 5825 5824 5822 5822 5821 5820 5819 5817 5814 5814 5815 5810 5809 5808 5810 5809 5806 5805 5804 5803 5801 5800 5801 5800 5797
5824 5823 5822 5822 5822 5821 5822 5820 5819 5817 5815 5816 5815 5813 5810 5807 5805 5805 5803 5800 5800 5800 5801 5800 5797 5796 5794 5794 5792 5793 5793 5791
5819 5817 5816 5815 5815 5814 5812 5811 5811 5810 5810 5808 5807 5806 5803 5800 5797 5795 5795 5791 5791 5789 5790 5790 5789 5788 5786 5784 5783 5785 5786 5786
5811 5810 5809 5807 5806 5804 5802 5800 5799 5799 5798 5797 5795 5793 5792 5790 5787 5787 5786 5784 5782 5781 5779 5779 5781 5780 5776 5777 5775 5776 5778 5780
5803 5802 5800 5798 5795 5795 5791 5791 5789 5789 5788 5786 5785 5783 5782 5780 5776 5776 5776 5775 5773 5770 5768 5769 5770 5769 5762 5760 5767 5766 5768 5768
5793 5792 5790 5787 5785 5783 5782 5780 5778 5776 5775 5774 5771 5769 5769 5766 5763 5762 5764 5762 5762 5761 5759 5758 5759 5759 5748 5758 5759 5760 5760 5759
5783 5782 5779 5776 5774 5771 5769 5767 5766 5764 5763 5761 5759 5756 5753 5751 5748 5747 5751 5751 5749 5750 5749 5745 5747 5749 5749 5747 5749 5750 5752 5751
5770 5767 5765 5763 5760 5757 5753 5751 5749 5747 5746 5745 5744 5742 5740 5738 5733 5731 5735 5737 5738 5737 5736 5733 5734 5735 5737 5737 5738 5740 5740 5741
5758 5755 5751 5747 5744 5741 5738 5736 5733 5731 5730 5728 5728 5726 5724 5723 5719 5716 5721 5722 5722 5721 5721 5720 5718 5720 5721 5722 5723 5726 5727 5730
5745 5741 5737 5732 5728 5725 5722 5718 5715 5713 5711 5709 5708 5708 5706 5709 5706 5702 5703 5705 5704 5704 5703 5703 5703 5705 5706 5705 5709 5714 5717 5719
5728 5724 5718 5712 5706 5703 5700 5697 5695 5693 5691 5690 5689 5690 5690 5690 5692 5680 5682 5691 5682 5673 5683 5686 5687 5689 5688 5690 5694 5700 5702 5707
5710 5704 5699 5692 5688 5682 5678 5673 5670 5668 5668 5669 5670 5670 5671 5673 5679 5668 5672 5674 5676 5663 5662 5676 5654 5670 5666 5673 5677 5682 5686 5692
5692 5683 5673 5667 5659 5651 5645 5642 5642 5641 5642 5643 5646 5650 5652 5654 5653 5651 5652 5653 5656 5659 5659 5663 5660 5659 5666 5662 5666 5665 5672 5675
5668 5660 5651 5640 5634 5629 5624 5621 5618 5616 5616 5614 5615 5616 5621 5626 5627 5629 5631 5632 5634 5637 5642 5643 5647 5648 5652 5653 5652 5655 5657 5660
5647 5636 5623 5613 5606 5603 5599 5593 5589 5586 5584 5581 5584 5585 5586 5591 5596 5601 5605 5609 5611 5615 5623 5627 5632 5630 5635 5638 5643 5637 5642 5646